Location: Demmingen
(48.6757°N, 10.4375°E)
Time: 21:19:23
(UTC+00:00)

SL-16 R/B - Pass Details

Date: 16 August 2024
Orbit: 842 x 845 km, 71.0° (Epoch: 10 September)

Event Time Altitude Azimuth Distance (km) Brightness Sun altitude
Exits shadow 23:15:55 34° 267° (W) 1,373 3.2 -28.0°
Maximum altitude 23:17:36 42° 307° (NW) 1,191 3.1 -28.0°
Drops below altitude 10° 23:22:59 10° 18° (NNE) 2,476 5.5 -28.0°
Sets 23:25:36 0° 26° (NNE) 3,415 6.3 -28.0°
